FW1703 Weather Reports


time (UTC)temp
C
wind
direction
speed
KPH
gust
KPH
rain 1hr
cm
rain 24hr
cm
rain mn
cm
humidity
%
barometer
mb
20260507000041 18 243 0.0 11.3 0.03 0.46 0.46 91 1007.4
20260506234600 18 280 0.0 4.8 0.03 0.46 0.46 91 1007.3
20260506233039 18 273 1.6 8.0 0.00 0.43 0.43 90 1007.2
20260506231537 19 260 0.0 11.3 0.00 0.43 0.43 87 1007.1
20260506230037 19 234 1.6 14.5 0.00 0.43 0.43 86 1006.9
20260506224539 20 211 3.2 11.3 0.00 0.43 0.43 85 1006.7
20260506223037 20 184 1.6 11.3 0.00 0.43 0.43 83 1006.9
20260506221545 20 198 3.2 12.9 0.00 0.43 0.43 83 1006.8
20260506220043 20 252 1.6 9.7 0.00 0.43 0.43 83 1006.6
20260506214532 20 246 3.2 11.3 0.00 0.43 0.43 83 1006.3
20260506213040 20 179 1.6 12.9 0.00 0.43 0.43 82 1006.6
20260506211541 21 175 4.8 16.1 0.00 0.43 0.43 79 1006.3
20260506210044 21 287 1.6 12.9 0.00 0.43 0.43 82 1006.0
20260506204533 20 185 3.2 9.7 0.00 0.43 0.43 86 1006.1
20260506203029 19 186 4.8 11.3 0.00 0.43 0.43 86 1006.2
20260506201535 19 238 4.8 12.9 0.00 0.43 0.43 86 1006.2
20260506200030 18 209 1.6 8.0 0.00 0.43 0.43 87 1006.3
20260506194525 19 162 1.6 9.7 0.00 0.43 0.43 86 1006.3
20260506193033 19 227 4.8 16.1 0.00 0.43 0.43 85 1006.4
20260506191522 20 259 6.4 19.3 0.00 0.43 0.43 87 1006.4
20260506190021 18 194 4.8 17.7 0.00 0.43 0.43 89 1006.5
20260506184525 18 200 3.2 12.9 0.00 0.43 0.43 90 1006.7
20260506183020 18 166 4.8 16.1 0.00 0.43 0.43 93 1006.9
20260506181534 17 171 4.8 11.3 0.00 0.43 0.43 93 1007.0
20260506180017 17 271 4.8 16.1 0.00 0.43 0.43 92 1007.2
20260506174518 16 203 4.8 22.5 0.00 0.43 0.43 93 1007.2
20260506173023 16 200 3.2 17.7 0.00 0.43 0.43 93 1007.2
20260506171520 16 171 4.8 14.5 0.00 0.43 0.43 93 1007.1
20260506170017 16 166 6.4 12.9 0.03 0.43 0.43 94 1007.2
20260506164516 16 175 6.4 19.3 0.05 0.43 0.43 94 1007.3
20260506163017 17 237 4.8 17.7 0.08 0.43 0.43 93 1007.5
20260506161514 17 165 8.0 20.9 0.13 0.43 0.43 94 1007.3
20260506160013 16 161 4.8 20.9 0.13 0.41 0.41 95 1006.9
20260506154510 16 182 8.0 19.3 0.13 0.38 0.38 94 1007.2
20260506153015 16 187 3.2 19.3 0.13 0.36 0.36 95 1007.9
20260506151513 16 165 4.8 12.9 0.13 0.30 0.30 94 1008.1
20260506150015 17 154 6.4 16.1 0.15 0.28 0.28 93 1008.2
20260506144506 17 199 6.4 17.7 0.15 0.25 0.25 93 1008.2
20260506143016 17 198 4.8 11.3 0.13 0.23 0.23 94 1008.0
20260506141504 16 173 4.8 16.1 0.10 0.18 0.18 93 1007.8
20260506140011 17 209 4.8 12.9 0.08 0.13 0.13 91 1008.0
20260506134601 17 153 4.8 14.5 0.05 0.10 0.10 91 1008.0
20260506133127 17 175 4.8 14.5 0.08 0.10 0.10 90 1008.0
20260506131559 17 179 0.0 12.9 0.05 0.08 0.08 90 1008.2
20260506130123 17 152 3.2 12.9 0.05 0.05 0.05 88 1008.3
20260506124556 17 133 3.2 16.1 0.05 0.05 0.05 87 1008.3
20260506123055 17 180 3.2 17.7 0.03 0.03 0.03 86 1008.4
20260506121551 17 165 4.8 14.5 0.03 0.03 0.03 86 1008.2
20260506120048 17 194 3.2 16.1 0.00 0.00 0.00 83 1008.0
20260506114548 18 153 3.2 14.5 0.00 0.00 0.00 81 1008.1
20260506113049 18 147 4.8 16.1 0.00 0.00 0.00 79 1007.8
20260506111542 18 190 6.4 12.9 0.00 0.00 0.00 78 1007.6
20260506110045 18 176 6.4 24.1 0.00 0.00 0.00 77 1007.6
20260506104607 18 205 4.8 19.3 0.00 0.00 0.00 77 1007.5
20260506103043 18 122 8.0 20.9 0.00 0.00 0.00 76 1007.3
20260506101547 18 165 9.7 20.9 0.00 0.00 0.00 76 1007.0
20260506100043 19 180 6.4 24.1 0.00 0.00 0.00 75 1006.9
20260506094538 19 159 8.0 20.9 0.00 0.00 0.00 75 1007.1
20260506093032 19 128 8.0 22.5 0.00 0.00 0.00 74 1007.2
20260506091533 19 184 6.4 24.1 0.00 0.00 0.00 73 1007.2
20260506090025 19 175 8.0 24.1 0.00 0.00 0.00 72 1007.2
20260506084531 19 171 8.0 17.7 0.00 0.00 0.00 71 1007.4
20260506083037 19 194 8.0 17.7 0.00 0.00 0.00 70 1007.4
20260506081521 20 185 6.4 20.9 0.00 0.00 0.00 69 1007.5
20260506073019 20 150 6.4 17.7 0.00 0.00 0.00 66 1007.6
20260506071512 20 157 6.4 19.3 0.00 0.00 0.00 65 1007.7
20260506061505 20 213 6.4 16.1 0.00 0.00 0.00 62 1008.1
20260506044612 20 208 6.4 20.9 0.00 0.00 0.00 60 1008.7
20260506043057 20 167 8.0 20.9 0.00 0.00 0.00 59 1008.7
20260506041559 21 180 6.4 19.3 0.00 0.00 0.00 58 1008.7
20260506040059 21 203 4.8 12.9 0.00 0.00 0.00 57 1008.8
20260506034559 21 165 6.4 17.7 0.00 0.00 0.00 56 1008.7
20260506033057 21 145 9.7 19.3 0.00 0.00 0.00 56 1008.7
20260506031558 21 117 6.4 12.9 0.00 0.00 0.00 56 1008.7
20260506030056 21 174 6.4 17.7 0.00 0.00 0.00 55 1008.7
20260506024551 21 157 3.2 11.3 0.00 0.00 0.00 55 1008.7
20260506023056 21 174 8.0 17.7 0.00 0.00 0.00 54 1008.7
20260506021558 22 144 3.2 14.5 0.00 0.00 0.00 53 1008.7
20260506020051 22 144 4.8 20.9 0.00 0.00 0.00 52 1008.7
20260506014547 22 161 3.2 12.9 0.00 0.00 0.00 52 1008.6
20260506013047 22 159 6.4 14.5 0.00 0.00 0.00 50 1008.4
20260506011552 23 190 6.4 14.5 0.00 0.00 0.00 48 1008.3
20260506010051 23 175 3.2 17.7 0.00 0.00 0.00 47 1008.0
20260506004547 23 183 4.8 14.5 0.00 0.00 0.00 46 1007.8
20260506003050 23 179 4.8 14.5 0.00 0.00 0.00 45 1007.7
20260506001546 24 148 3.2 16.1 0.00 0.00 0.00 45 1007.6